Location: Kawakawa
(35.3830°S, 174.0670°E)
Time: 10:14:07
(UTC+13:00)

Explorer 7 - Pass Details

Date: 13 December 2019
Orbit: 485 x 679 km, 50.3° (Epoch: 18 January)

Event Time Altitude Azimuth Distance (km) Brightness Sun altitude
Rises 06:28:41 0° 245° (WSW) 2,591 9.9 3.9°
Reaches altitude 10° 06:32:53 10° 201° (SSW) 1,695 9.4 4.7°
Maximum altitude 06:33:28 10° 192° (SSW) 1,678 9.5 4.8°
Drops below altitude 10° 06:34:03 10° 183° (S) 1,695 9.7 4.9°
Sets 06:38:16 0° 138° (SE) 2,587 11.7 5.7°
